,,PressureMeas_1m,,PRMeasQMR101_1,,RHStat155_1m_1,,SRMeasQMS101R_1m,,TAStat155_1m_1,,GenWind_1,,GenWind_1,
2019-03-27, 07:00:06,VALID,919.444,VALID,0.0,VALID,97.639,VALID,28.031,VALID,20.243,VALID,160.0,VALID,0.0,
2019-03-27, 07:01:06,VALID,919.452,VALID,0.0,VALID,97.642,VALID,28.407,VALID,20.262,VALID,153.0,VALID,0.0,
2019-03-27, 07:02:06,VALID,919.443,VALID,0.0,VALID,97.579,VALID,28.804,VALID,20.277,VALID,139.0,VALID,0.0,
2019-03-27, 07:03:06,VALID,919.451,VALID,0.0,VALID,97.516,VALID,29.174,VALID,20.291,VALID,137.0,VALID,0.0,
2019-03-27, 07:04:06,VALID,919.457,VALID,0.0,VALID,97.42,VALID,29.57,VALID,20.295,VALID,137.0,VALID,0.0,
2019-03-27, 07:05:06,VALID,919.497,VALID,0.0,VALID,97.299,VALID,30.05,VALID,20.318,VALID,119.0,VALID,0.0,
2019-03-27, 07:06:06,VALID,919.556,VALID,0.0,VALID,97.153,VALID,30.698,VALID,20.339,VALID,119.0,VALID,0.0,
2019-03-27, 07:07:06,VALID,919.589,VALID,0.0,VALID,97.034,VALID,31.462,VALID,20.352,VALID,119.0,VALID,0.0,
2019-03-27, 07:08:06,VALID,919.637,VALID,0.0,VALID,97.063,VALID,32.296,VALID,20.38,VALID,122.0,VALID,0.0,
2019-03-27, 07:09:06,VALID,919.703,VALID,0.0,VALID,97.022,VALID,33.218,VALID,20.389,VALID,124.0,VALID,0.0,
2019-03-27, 07:10:06,VALID,919.77,VALID,0.0,VALID,96.969,VALID,34.205,VALID,20.381,VALID,74.0,VALID,0.0,
2019-03-27, 07:11:06,VALID,919.807,VALID,0.0,VALID,96.94,VALID,35.224,VALID,20.371,VALID,9.0,VALID,0.0,
2019-03-27, 07:12:06,VALID,919.865,VALID,0.0,VALID,96.824,VALID,36.121,VALID,20.315,VALID,19.0,VALID,0.0,
2019-03-27, 07:13:06,VALID,919.909,VALID,0.0,VALID,96.806,VALID,36.913,VALID,20.277,VALID,23.0,VALID,0.0,
2019-03-27, 07:14:06,VALID,919.93,VALID,0.0,VALID,96.908,VALID,37.703,VALID,20.285,VALID,23.0,VALID,0.0,
2019-03-27, 07:15:06,VALID,919.97,VALID,0.0,VALID,97.035,VALID,38.602,VALID,20.32,VALID,23.0,VALID,0.0,
2019-03-27, 07:16:06,VALID,919.986,VALID,0.0,VALID,97.11,VALID,39.249,VALID,20.357,VALID,23.0,VALID,0.0,
2019-03-27, 07:17:06,VALID,920.009,VALID,0.0,VALID,97.008,VALID,39.571,VALID,20.357,VALID,23.0,VALID,0.0,
2019-03-27, 07:18:06,VALID,920.065,VALID,0.0,VALID,96.877,VALID,39.276,VALID,20.372,VALID,23.0,VALID,0.0,
2019-03-27, 07:19:06,VALID,920.104,VALID,0.0,VALID,96.745,VALID,38.383,VALID,20.385,VALID,24.0,VALID,0.0,
2019-03-27, 07:20:06,VALID,920.145,VALID,0.0,VALID,96.676,VALID,38.159,VALID,20.418,VALID,40.0,VALID,0.0,
2019-03-27, 07:21:06,VALID,920.178,VALID,0.0,VALID,96.634,VALID,38.371,VALID,20.456,VALID,106.0,VALID,0.0,
2019-03-27, 07:22:06,VALID,920.219,VALID,0.0,VALID,96.606,VALID,39.201,VALID,20.491,VALID,118.0,VALID,0.0,
2019-03-27, 07:23:06,VALID,920.271,VALID,0.0,VALID,96.662,VALID,40.467,VALID,20.51,VALID,126.0,VALID,0.0,
2019-03-27, 07:24:06,VALID,920.286,VALID,0.0,VALID,96.656,VALID,41.411,VALID,20.512,VALID,120.0,VALID,0.0,
2019-03-27, 07:25:06,VALID,920.298,VALID,0.0,VALID,96.505,VALID,42.321,VALID,20.53,VALID,118.0,VALID,0.0,
2019-03-27, 07:26:06,VALID,920.329,VALID,0.0,VALID,96.326,VALID,43.705,VALID,20.57,VALID,114.0,VALID,0.0,
2019-03-27, 07:27:06,VALID,920.344,VALID,0.0,VALID,96.142,VALID,45.352,VALID,20.595,VALID,110.0,VALID,0.0,
2019-03-27, 07:28:06,VALID,920.346,VALID,0.0,VALID,95.951,VALID,47.294,VALID,20.62,VALID,107.0,VALID,0.0,
2019-03-27, 07:29:06,VALID,920.358,VALID,0.0,VALID,95.781,VALID,49.283,VALID,20.65,VALID,110.0,VALID,0.0,
2019-03-27, 07:30:06,VALID,920.341,VALID,0.0,VALID,95.754,VALID,51.244,VALID,20.682,VALID,113.0,VALID,0.0,
2019-03-27, 07:31:06,VALID,920.345,VALID,0.0,VALID,95.66,VALID,52.765,VALID,20.691,VALID,115.0,VALID,0.0,
2019-03-27, 07:32:06,VALID,920.353,VALID,0.0,VALID,95.426,VALID,53.863,VALID,20.734,VALID,109.0,VALID,0.0,
2019-03-27, 07:33:06,VALID,920.343,VALID,0.0,VALID,94.988,VALID,54.613,VALID,20.799,VALID,107.0,VALID,0.0,
2019-03-27, 07:34:06,VALID,920.359,VALID,0.0,VALID,94.56,VALID,55.199,VALID,20.874,VALID,102.0,VALID,0.0,
2019-03-27, 07:35:06,VALID,920.366,VALID,0.0,VALID,94.066,VALID,55.797,VALID,20.955,VALID,99.0,VALID,0.0,
2019-03-27, 07:36:06,VALID,920.364,VALID,0.0,VALID,93.384,VALID,56.535,VALID,21.054,VALID,93.0,VALID,0.0,
2019-03-27, 07:37:06,VALID,920.361,VALID,0.0,VALID,93.011,VALID,57.452,VALID,21.133,VALID,95.0,VALID,0.0,
2019-03-27, 07:38:06,VALID,920.377,VALID,0.0,VALID,92.616,VALID,58.495,VALID,21.183,VALID,97.0,VALID,0.0,
2019-03-27, 07:39:06,VALID,920.381,VALID,0.0,VALID,92.478,VALID,59.776,VALID,21.211,VALID,97.0,VALID,0.0,
2019-03-27, 07:40:06,VALID,920.398,VALID,0.0,VALID,92.491,VALID,61.258,VALID,21.211,VALID,97.0,VALID,0.0,
2019-03-27, 07:41:06,VALID,920.406,VALID,0.0,VALID,92.376,VALID,62.826,VALID,21.233,VALID,112.0,VALID,0.0,
2019-03-27, 07:42:06,VALID,920.431,VALID,0.0,VALID,92.491,VALID,64.411,VALID,21.24,VALID,120.0,VALID,0.0,
2019-03-27, 07:43:06,VALID,920.447,VALID,0.0,VALID,92.887,VALID,65.961,VALID,21.196,VALID,122.0,VALID,0.0,
2019-03-27, 07:44:06,VALID,920.464,VALID,0.0,VALID,93.391,VALID,67.506,VALID,21.139,VALID,124.0,VALID,0.0,
2019-03-27, 07:45:06,VALID,920.454,VALID,0.0,VALID,93.723,VALID,68.959,VALID,21.094,VALID,125.0,VALID,0.0,
2019-03-27, 07:46:06,VALID,920.466,VALID,0.0,VALID,93.909,VALID,70.424,VALID,21.085,VALID,125.0,VALID,0.0,
2019-03-27, 07:47:06,VALID,920.447,VALID,0.0,VALID,94.225,VALID,72.089,VALID,21.081,VALID,130.0,VALID,0.0,
2019-03-27, 07:48:06,VALID,920.442,VALID,0.0,VALID,94.324,VALID,73.93,VALID,21.065,VALID,125.0,VALID,0.0,
2019-03-27, 07:49:06,VALID,920.418,VALID,0.0,VALID,94.547,VALID,75.965,VALID,21.042,VALID,124.0,VALID,0.0,
2019-03-27, 07:50:06,VALID,920.396,VALID,0.0,VALID,94.819,VALID,78.085,VALID,21.028,VALID,112.0,VALID,0.0,
2019-03-27, 07:51:06,VALID,920.388,VALID,0.0,VALID,94.703,VALID,80.053,VALID,21.021,VALID,133.0,VALID,0.0,
2019-03-27, 07:52:06,VALID,920.389,VALID,0.0,VALID,94.589,VALID,81.795,VALID,21.048,VALID,120.0,VALID,0.0,
2019-03-27, 07:53:06,VALID,920.399,VALID,0.0,VALID,94.458,VALID,83.303,VALID,21.086,VALID,128.0,VALID,0.0,
2019-03-27, 07:54:06,VALID,920.415,VALID,0.0,VALID,94.528,VALID,84.607,VALID,21.122,VALID,115.0,VALID,0.0,
2019-03-27, 07:55:06,VALID,920.416,VALID,0.0,VALID,94.489,VALID,85.732,VALID,21.146,VALID,128.0,VALID,0.0,
2019-03-27, 07:56:06,VALID,920.426,VALID,0.0,VALID,93.92,VALID,86.774,VALID,21.144,VALID,135.0,VALID,0.0,
2019-03-27, 07:57:06,VALID,920.426,VALID,0.0,VALID,93.612,VALID,87.965,VALID,21.149,VALID,128.0,VALID,0.0,
2019-03-27, 07:58:06,VALID,920.41,VALID,0.0,VALID,93.377,VALID,89.157,VALID,21.144,VALID,117.0,VALID,0.0,
2019-03-27, 07:59:06,VALID,920.39,VALID,0.0,VALID,93.211,VALID,90.607,VALID,21.153,VALID,118.0,VALID,0.0,
2019-03-27, 08:00:06,VALID,920.39,VALID,0.0,VALID,93.087,VALID,92.368,VALID,21.177,VALID,117.0,VALID,0.0,
2019-03-27, 08:01:06,VALID,920.356,VALID,0.0,VALID,92.93,VALID,94.299,VALID,21.257,VALID,114.0,VALID,0.0,
2019-03-27, 08:02:06,VALID,920.328,VALID,0.0,VALID,92.87,VALID,96.261,VALID,21.314,VALID,113.0,VALID,0.0,
2019-03-27, 08:03:06,VALID,920.314,VALID,0.0,VALID,92.67,VALID,98.099,VALID,21.374,VALID,107.0,VALID,0.0,
2019-03-27, 08:04:06,VALID,920.316,VALID,0.0,VALID,92.464,VALID,99.798,VALID,21.409,VALID,108.0,VALID,0.0,
2019-03-27, 08:05:06,VALID,920.303,VALID,0.0,VALID,92.274,VALID,101.382,VALID,21.431,VALID,104.0,VALID,0.0,
2019-03-27, 08:06:06,VALID,920.297,VALID,0.0,VALID,92.416,VALID,103.009,VALID,21.43,VALID,110.0,VALID,0.0,
2019-03-27, 08:07:06,VALID,920.315,VALID,0.0,VALID,92.34,VALID,104.562,VALID,21.405,VALID,114.0,VALID,0.0,
2019-03-27, 08:08:06,VALID,920.307,VALID,0.0,VALID,92.358,VALID,106.044,VALID,21.375,VALID,113.0,VALID,0.0,
2019-03-27, 08:09:06,VALID,920.332,VALID,0.0,VALID,92.51,VALID,107.481,VALID,21.359,VALID,111.0,VALID,0.0,
2019-03-27, 08:10:06,VALID,920.338,VALID,0.0,VALID,92.624,VALID,108.905,VALID,21.357,VALID,105.0,VALID,0.0,
2019-03-27, 08:11:06,VALID,920.367,VALID,0.0,VALID,92.655,VALID,110.235,VALID,21.394,VALID,97.0,VALID,0.0,
2019-03-27, 08:12:06,VALID,920.393,VALID,0.0,VALID,92.68,VALID,111.543,VALID,21.405,VALID,101.0,VALID,0.0,
2019-03-27, 08:13:06,VALID,920.409,VALID,0.0,VALID,92.723,VALID,112.782,VALID,21.442,VALID,107.0,VALID,0.0,
2019-03-27, 08:14:06,VALID,920.409,VALID,0.0,VALID,92.618,VALID,113.869,VALID,21.465,VALID,103.0,VALID,0.0,
2019-03-27, 08:15:06,VALID,920.418,VALID,0.0,VALID,92.72,VALID,114.977,VALID,21.504,VALID,106.0,VALID,0.0,
2019-03-27, 08:16:06,VALID,920.425,VALID,0.0,VALID,92.28,VALID,116.034,VALID,21.52,VALID,110.0,VALID,0.0,
2019-03-27, 08:17:06,VALID,920.444,VALID,0.0,VALID,92.443,VALID,117.119,VALID,21.528,VALID,114.0,VALID,0.0,
2019-03-27, 08:18:06,VALID,920.464,VALID,0.0,VALID,92.758,VALID,118.235,VALID,21.526,VALID,125.0,VALID,0.0,
2019-03-27, 08:19:06,VALID,920.499,VALID,0.0,VALID,92.355,VALID,119.207,VALID,21.531,VALID,126.0,VALID,0.0,
2019-03-27, 08:20:06,VALID,920.516,VALID,0.0,VALID,92.386,VALID,119.947,VALID,21.573,VALID,133.0,VALID,0.0,
2019-03-27, 08:21:06,VALID,920.561,VALID,0.0,VALID,92.147,VALID,120.36,VALID,21.627,VALID,130.0,VALID,0.0,
2019-03-27, 08:22:06,VALID,920.607,VALID,0.0,VALID,92.376,VALID,120.57,VALID,21.677,VALID,126.0,VALID,0.0,
2019-03-27, 08:23:06,VALID,920.647,VALID,0.0,VALID,92.522,VALID,120.833,VALID,21.7,VALID,133.0,VALID,0.0,
2019-03-27, 08:24:06,VALID,920.679,VALID,0.0,VALID,92.28,VALID,121.241,VALID,21.713,VALID,132.0,VALID,0.0,
2019-03-27, 08:25:06,VALID,920.689,VALID,0.0,VALID,91.588,VALID,121.799,VALID,21.736,VALID,126.0,VALID,0.0,
2019-03-27, 08:26:06,VALID,920.712,VALID,0.0,VALID,91.913,VALID,122.313,VALID,21.745,VALID,131.0,VALID,0.0,
2019-03-27, 08:27:06,VALID,920.731,VALID,0.0,VALID,91.877,VALID,122.431,VALID,21.734,VALID,127.0,VALID,0.0,
2019-03-27, 08:28:06,VALID,920.727,VALID,0.0,VALID,91.842,VALID,122.142,VALID,21.732,VALID,131.0,VALID,0.0,
2019-03-27, 08:29:06,VALID,920.728,VALID,0.0,VALID,91.806,VALID,121.549,VALID,21.726,VALID,125.0,VALID,0.0,
2019-03-27, 08:30:06,VALID,920.747,VALID,0.0,VALID,91.4,VALID,120.942,VALID,21.73,VALID,130.0,VALID,0.0,
2019-03-27, 08:31:06,VALID,920.753,VALID,0.0,VALID,91.039,VALID,120.071,VALID,21.753,VALID,119.0,VALID,0.0,
2019-03-27, 08:32:06,VALID,920.764,VALID,0.0,VALID,91.325,VALID,119.114,VALID,21.767,VALID,118.0,VALID,0.0,
2019-03-27, 08:33:06,VALID,920.769,VALID,0.0,VALID,90.59,VALID,118.077,VALID,21.769,VALID,118.0,VALID,0.0,
2019-03-27, 08:34:06,VALID,920.777,VALID,0.0,VALID,89.947,VALID,117.05,VALID,21.853,VALID,114.0,VALID,0.0,
2019-03-27, 08:35:06,VALID,920.798,VALID,0.0,VALID,89.74,VALID,116.143,VALID,21.913,VALID,121.0,VALID,0.0,
2019-03-27, 08:36:06,VALID,920.794,VALID,0.0,VALID,88.926,VALID,115.327,VALID,21.987,VALID,111.0,VALID,0.0,
2019-03-27, 08:37:06,VALID,920.794,VALID,0.0,VALID,89.375,VALID,114.627,VALID,22.034,VALID,112.0,VALID,0.0,
2019-03-27, 08:38:07,VALID,920.788,VALID,0.0,VALID,88.961,VALID,113.991,VALID,22.052,VALID,107.0,VALID,0.0,
2019-03-27, 08:39:07,VALID,920.781,VALID,0.0,VALID,89.043,VALID,113.296,VALID,22.059,VALID,106.0,VALID,0.0,
2019-03-27, 08:40:07,VALID,920.801,VALID,0.0,VALID,88.864,VALID,112.52,VALID,22.06,VALID,110.0,VALID,0.0,
2019-03-27, 08:41:07,VALID,920.796,VALID,0.0,VALID,89.067,VALID,111.661,VALID,22.06,VALID,110.0,VALID,0.0,
2019-03-27, 08:42:07,VALID,920.802,VALID,0.0,VALID,89.742,VALID,110.746,VALID,22.039,VALID,110.0,VALID,0.0,
2019-03-27, 08:43:07,VALID,920.819,VALID,0.0,VALID,90.172,VALID,109.754,VALID,22.01,VALID,91.0,VALID,0.0,
2019-03-27, 08:44:07,VALID,920.82,VALID,0.0,VALID,89.204,VALID,108.74,VALID,21.99,VALID,89.0,VALID,0.0,
2019-03-27, 08:45:07,VALID,920.845,VALID,0.0,VALID,89.556,VALID,107.741,VALID,22.008,VALID,73.0,VALID,0.0,
2019-03-27, 08:46:07,VALID,920.846,VALID,0.0,VALID,90.057,VALID,106.746,VALID,22.012,VALID,66.0,VALID,0.0,
2019-03-27, 08:47:07,VALID,920.855,VALID,0.0,VALID,90.547,VALID,105.811,VALID,22.014,VALID,70.0,VALID,0.0,
2019-03-27, 08:48:07,VALID,920.88,VALID,0.0,VALID,89.85,VALID,104.883,VALID,21.983,VALID,82.0,VALID,0.0,
2019-03-27, 08:49:07,VALID,920.887,VALID,0.0,VALID,89.115,VALID,103.877,VALID,21.974,VALID,86.0,VALID,0.0,
2019-03-27, 08:50:07,VALID,920.886,VALID,0.0,VALID,88.437,VALID,102.795,VALID,21.974,VALID,91.0,VALID,0.0,
2019-03-27, 08:51:07,VALID,920.858,VALID,0.0,VALID,88.683,VALID,101.6,VALID,21.964,VALID,83.0,VALID,0.0,
2019-03-27, 08:52:07,VALID,920.86,VALID,0.0,VALID,88.919,VALID,100.316,VALID,21.962,VALID,83.0,VALID,0.0,
2019-03-27, 08:53:07,VALID,920.851,VALID,0.0,VALID,89.215,VALID,98.978,VALID,21.98,VALID,70.0,VALID,0.0,
2019-03-27, 08:54:07,VALID,920.844,VALID,0.0,VALID,89.788,VALID,97.722,VALID,21.973,VALID,79.0,VALID,0.0,
2019-03-27, 08:55:07,VALID,920.826,VALID,0.0,VALID,89.805,VALID,96.608,VALID,21.934,VALID,91.0,VALID,0.0,
2019-03-27, 08:56:07,VALID,920.812,VALID,0.0,VALID,89.941,VALID,95.644,VALID,21.89,VALID,93.0,VALID,0.0,
2019-03-27, 08:57:07,VALID,920.819,VALID,0.0,VALID,90.015,VALID,94.911,VALID,21.893,VALID,88.0,VALID,0.0,
2019-03-27, 08:58:07,VALID,920.813,VALID,0.0,VALID,90.289,VALID,94.309,VALID,21.885,VALID,88.0,VALID,0.0,
2019-03-27, 08:59:07,VALID,920.822,VALID,0.0,VALID,90.068,VALID,93.75,VALID,21.879,VALID,87.0,VALID,0.0,
2019-03-27, 09:00:07,VALID,920.825,VALID,0.0,VALID,90.521,VALID,93.285,VALID,21.879,VALID,87.0,VALID,0.0,
2019-03-27, 09:01:07,VALID,920.855,VALID,0.0,VALID,90.529,VALID,92.877,VALID,21.865,VALID,85.0,VALID,0.0,
2019-03-27, 09:02:07,VALID,920.867,VALID,0.0,VALID,90.853,VALID,92.546,VALID,21.868,VALID,77.0,VALID,0.0,
2019-03-27, 09:03:07,VALID,920.869,VALID,0.0,VALID,90.432,VALID,92.261,VALID,21.85,VALID,93.0,VALID,0.0,
2019-03-27, 09:04:07,VALID,920.874,VALID,0.0,VALID,90.725,VALID,92.066,VALID,21.849,VALID,90.0,VALID,0.0,
2019-03-27, 09:05:07,VALID,920.877,VALID,0.0,VALID,91.053,VALID,91.982,VALID,21.877,VALID,95.0,VALID,0.0,
2019-03-27, 09:06:07,VALID,920.885,VALID,0.0,VALID,90.945,VALID,92.005,VALID,21.901,VALID,97.0,VALID,0.0,
2019-03-27, 09:07:07,VALID,920.864,VALID,0.0,VALID,91.201,VALID,92.065,VALID,21.931,VALID,100.0,VALID,0.0,
2019-03-27, 09:08:07,VALID,920.85,VALID,0.0,VALID,90.843,VALID,92.234,VALID,21.956,VALID,110.0,VALID,0.0,
2019-03-27, 09:09:07,VALID,920.841,VALID,0.0,VALID,90.719,VALID,92.48,VALID,21.974,VALID,116.0,VALID,0.0,
2019-03-27, 09:10:07,VALID,920.831,VALID,0.0,VALID,91.033,VALID,92.784,VALID,21.983,VALID,118.0,VALID,0.0,
2019-03-27, 09:11:07,VALID,920.802,VALID,0.0,VALID,91.356,VALID,93.182,VALID,21.984,VALID,122.0,VALID,0.0,
2019-03-27, 09:12:07,VALID,920.795,VALID,0.0,VALID,91.21,VALID,93.53,VALID,22.03,VALID,117.0,VALID,0.0,
2019-03-27, 09:13:07,VALID,920.789,VALID,0.0,VALID,90.882,VALID,93.905,VALID,22.067,VALID,125.0,VALID,0.0,
2019-03-27, 09:14:07,VALID,920.811,VALID,0.0,VALID,91.1,VALID,94.16,VALID,22.117,VALID,136.0,VALID,0.0,
2019-03-27, 09:15:07,VALID,920.813,VALID,0.0,VALID,90.754,VALID,94.33,VALID,22.173,VALID,123.0,VALID,0.0,
2019-03-27, 09:16:07,VALID,920.818,VALID,0.0,VALID,89.84,VALID,94.493,VALID,22.17,VALID,126.0,VALID,0.0,
2019-03-27, 09:17:07,VALID,920.832,VALID,0.0,VALID,90.012,VALID,94.62,VALID,22.196,VALID,131.0,VALID,0.0,
2019-03-27, 09:18:07,VALID,920.833,VALID,0.0,VALID,89.027,VALID,94.744,VALID,22.211,VALID,125.0,VALID,0.0,
2019-03-27, 09:19:07,VALID,920.858,VALID,0.0,VALID,88.762,VALID,94.866,VALID,22.22,VALID,126.0,VALID,0.0,
2019-03-27, 09:20:07,VALID,920.852,VALID,0.0,VALID,88.35,VALID,94.983,VALID,22.251,VALID,129.0,VALID,0.0,
2019-03-27, 09:21:07,VALID,920.846,VALID,0.0,VALID,88.425,VALID,95.116,VALID,22.287,VALID,129.0,VALID,0.0,
2019-03-27, 09:22:07,VALID,920.845,VALID,0.0,VALID,88.083,VALID,95.364,VALID,22.301,VALID,128.0,VALID,0.0,
2019-03-27, 09:23:07,VALID,920.838,VALID,0.0,VALID,87.797,VALID,95.562,VALID,22.296,VALID,119.0,VALID,0.0,
2019-03-27, 09:24:07,VALID,920.839,VALID,0.0,VALID,88.057,VALID,95.863,VALID,22.265,VALID,120.0,VALID,0.0,
2019-03-27, 09:25:07,VALID,920.856,VALID,0.0,VALID,88.428,VALID,96.187,VALID,22.244,VALID,111.0,VALID,0.0,
2019-03-27, 09:26:07,VALID,920.872,VALID,0.0,VALID,87.321,VALID,96.524,VALID,22.285,VALID,115.0,VALID,0.0,
2019-03-27, 09:27:07,VALID,920.868,VALID,0.0,VALID,86.914,VALID,96.793,VALID,22.368,VALID,105.0,VALID,0.0,
2019-03-27, 09:28:07,VALID,920.878,VALID,0.0,VALID,87.265,VALID,97.027,VALID,22.416,VALID,102.0,VALID,0.0,
2019-03-27, 09:29:07,VALID,920.892,VALID,0.0,VALID,86.459,VALID,97.155,VALID,22.449,VALID,103.0,VALID,0.0,
2019-03-27, 09:30:07,VALID,920.914,VALID,0.0,VALID,85.625,VALID,97.19,VALID,22.546,VALID,94.0,VALID,0.0,
2019-03-27, 09:31:07,VALID,920.918,VALID,0.0,VALID,85.424,VALID,97.232,VALID,22.619,VALID,103.0,VALID,0.0,
2019-03-27, 09:32:07,VALID,920.924,VALID,0.0,VALID,84.408,VALID,97.192,VALID,22.69,VALID,102.0,VALID,0.0,
2019-03-27, 09:33:07,VALID,920.945,VALID,0.0,VALID,84.827,VALID,97.064,VALID,22.742,VALID,94.0,VALID,0.0,
2019-03-27, 09:34:07,VALID,920.931,VALID,0.0,VALID,85.284,VALID,96.95,VALID,22.714,VALID,102.0,VALID,0.0,
2019-03-27, 09:35:07,VALID,920.937,VALID,0.0,VALID,84.557,VALID,96.833,VALID,22.725,VALID,87.0,VALID,0.0,
2019-03-27, 09:36:07,VALID,920.917,VALID,0.0,VALID,84.626,VALID,96.779,VALID,22.709,VALID,95.0,VALID,0.0,
2019-03-27, 09:37:07,VALID,920.932,VALID,0.0,VALID,84.215,VALID,96.719,VALID,22.736,VALID,89.0,VALID,0.0,
2019-03-27, 09:38:07,VALID,920.935,VALID,0.0,VALID,85.729,VALID,96.798,VALID,22.627,VALID,99.0,VALID,0.0,
2019-03-27, 09:39:07,VALID,920.911,VALID,0.0,VALID,86.827,VALID,96.923,VALID,22.518,VALID,106.0,VALID,0.0,
2019-03-27, 09:40:07,VALID,920.906,VALID,0.0,VALID,87.428,VALID,97.078,VALID,22.425,VALID,110.0,VALID,0.0,
2019-03-27, 09:41:07,VALID,920.874,VALID,0.0,VALID,86.065,VALID,97.284,VALID,22.467,VALID,88.0,VALID,0.0,
2019-03-27, 09:42:07,VALID,920.864,VALID,0.0,VALID,86.56,VALID,97.521,VALID,22.538,VALID,91.0,VALID,0.0,
2019-03-27, 09:43:07,VALID,920.845,VALID,0.0,VALID,86.431,VALID,97.801,VALID,22.544,VALID,86.0,VALID,0.0,
2019-03-27, 09:44:07,VALID,920.824,VALID,0.0,VALID,86.746,VALID,98.221,VALID,22.534,VALID,103.0,VALID,0.0,
2019-03-27, 09:45:07,VALID,920.802,VALID,0.0,VALID,86.563,VALID,98.659,VALID,22.555,VALID,114.0,VALID,0.0,
2019-03-27, 09:46:07,VALID,920.787,VALID,0.0,VALID,85.605,VALID,99.061,VALID,22.605,VALID,98.0,VALID,0.0,
2019-03-27, 09:47:07,VALID,920.771,VALID,0.0,VALID,86.284,VALID,99.437,VALID,22.593,VALID,92.0,VALID,0.0,
2019-03-27, 09:48:07,VALID,920.764,VALID,0.0,VALID,87.015,VALID,99.752,VALID,22.489,VALID,91.0,VALID,0.0,
2019-03-27, 09:49:07,VALID,920.754,VALID,0.0,VALID,87.296,VALID,100.048,VALID,22.41,VALID,87.0,VALID,0.0,
2019-03-27, 09:50:07,VALID,920.781,VALID,0.0,VALID,87.863,VALID,100.249,VALID,22.381,VALID,100.0,VALID,0.0,
2019-03-27, 09:51:07,VALID,920.763,VALID,0.0,VALID,87.677,VALID,100.418,VALID,22.397,VALID,94.0,VALID,0.0,
2019-03-27, 09:52:07,VALID,920.784,VALID,0.0,VALID,87.726,VALID,100.631,VALID,22.407,VALID,111.0,VALID,0.0,
2019-03-27, 09:53:07,VALID,920.78,VALID,0.0,VALID,87.781,VALID,100.809,VALID,22.406,VALID,94.0,VALID,0.0,
2019-03-27, 09:54:07,VALID,920.788,VALID,0.0,VALID,88.026,VALID,101.168,VALID,22.378,VALID,115.0,VALID,0.0,
2019-03-27, 09:55:07,VALID,920.759,VALID,0.0,VALID,87.351,VALID,101.718,VALID,22.391,VALID,112.0,VALID,0.0,
2019-03-27, 09:56:07,VALID,920.779,VALID,0.0,VALID,87.427,VALID,102.394,VALID,22.405,VALID,115.0,VALID,0.0,
2019-03-27, 09:57:07,VALID,920.757,VALID,0.0,VALID,86.921,VALID,103.187,VALID,22.402,VALID,91.0,VALID,0.0,
2019-03-27, 09:58:07,VALID,920.755,VALID,0.0,VALID,87.194,VALID,104.187,VALID,22.39,VALID,97.0,VALID,0.0,
2019-03-27, 09:59:07,VALID,920.747,VALID,0.0,VALID,87.192,VALID,105.229,VALID,22.385,VALID,85.0,VALID,0.0,
2019-03-27, 10:00:07,VALID,920.747,VALID,0.0,VALID,87.563,VALID,106.368,VALID,22.389,VALID,95.0,VALID,0.0,
2019-03-27, 10:01:07,VALID,920.742,VALID,0.0,VALID,87.306,VALID,107.492,VALID,22.396,VALID,91.0,VALID,0.0,
2019-03-27, 10:02:07,VALID,920.742,VALID,0.0,VALID,87.635,VALID,108.619,VALID,22.379,VALID,95.0,VALID,0.0,
2019-03-27, 10:03:07,VALID,920.732,VALID,0.0,VALID,88.326,VALID,109.795,VALID,22.358,VALID,86.0,VALID,0.0,
2019-03-27, 10:04:07,VALID,920.727,VALID,0.0,VALID,87.894,VALID,110.995,VALID,22.33,VALID,89.0,VALID,0.0,
2019-03-27, 10:05:07,VALID,920.718,VALID,0.0,VALID,88.372,VALID,112.061,VALID,22.293,VALID,110.0,VALID,0.0,
2019-03-27, 10:06:07,VALID,920.716,VALID,0.0,VALID,88.625,VALID,113.04,VALID,22.294,VALID,104.0,VALID,0.0,
2019-03-27, 10:07:07,VALID,920.717,VALID,0.0,VALID,88.668,VALID,114.279,VALID,22.296,VALID,113.0,VALID,0.0,
2019-03-27, 10:08:07,VALID,920.681,VALID,0.0,VALID,88.053,VALID,115.454,VALID,22.311,VALID,120.0,VALID,0.0,
2019-03-27, 10:09:07,VALID,920.675,VALID,0.0,VALID,88.312,VALID,116.869,VALID,22.346,VALID,119.0,VALID,0.0,
2019-03-27, 10:10:07,VALID,920.646,VALID,0.0,VALID,88.313,VALID,118.093,VALID,22.344,VALID,119.0,VALID,0.0,
2019-03-27, 10:11:07,VALID,920.653,VALID,0.0,VALID,88.561,VALID,119.087,VALID,22.333,VALID,130.0,VALID,0.0,
2019-03-27, 10:12:07,VALID,920.627,VALID,0.0,VALID,88.908,VALID,120.669,VALID,22.33,VALID,127.0,VALID,0.0,
2019-03-27, 10:13:07,VALID,920.629,VALID,0.0,VALID,89.051,VALID,122.4,VALID,22.354,VALID,133.0,VALID,0.0,
2019-03-27, 10:14:07,VALID,920.618,VALID,0.0,VALID,89.012,VALID,124.091,VALID,22.344,VALID,130.0,VALID,0.0,
2019-03-27, 10:15:07,VALID,920.592,VALID,0.0,VALID,89.736,VALID,125.892,VALID,22.325,VALID,125.0,VALID,0.0,
2019-03-27, 10:16:07,VALID,920.586,VALID,0.0,VALID,89.272,VALID,127.567,VALID,22.315,VALID,111.0,VALID,0.0,
2019-03-27, 10:17:07,VALID,920.592,VALID,0.0,VALID,89.55,VALID,128.95,VALID,22.3,VALID,103.0,VALID,0.0,
2019-03-27, 10:18:07,VALID,920.584,VALID,0.0,VALID,89.026,VALID,130.361,VALID,22.261,VALID,90.0,VALID,0.0,
2019-03-27, 10:19:07,VALID,920.563,VALID,0.0,VALID,89.684,VALID,132.349,VALID,22.277,VALID,115.0,VALID,0.0,
2019-03-27, 10:20:07,VALID,920.555,VALID,0.0,VALID,89.564,VALID,134.232,VALID,22.271,VALID,125.0,VALID,0.0,
2019-03-27, 10:21:07,VALID,920.541,VALID,0.0,VALID,89.956,VALID,135.209,VALID,22.265,VALID,125.0,VALID,0.0,
2019-03-27, 10:22:07,VALID,920.55,VALID,0.0,VALID,89.695,VALID,135.645,VALID,22.272,VALID,122.0,VALID,0.0,
2019-03-27, 10:23:07,VALID,920.571,VALID,0.0,VALID,89.896,VALID,136.007,VALID,22.26,VALID,116.0,VALID,0.0,
2019-03-27, 10:24:07,VALID,920.534,VALID,0.0,VALID,90.226,VALID,134.969,VALID,22.232,VALID,131.0,VALID,0.0,
2019-03-27, 10:25:07,VALID,920.532,VALID,0.0,VALID,90.489,VALID,135.956,VALID,22.22,VALID,124.0,VALID,0.0,
2019-03-27, 10:26:07,VALID,920.521,VALID,0.0,VALID,90.23,VALID,138.612,VALID,22.225,VALID,121.0,VALID,0.0,
2019-03-27, 10:27:07,VALID,920.525,VALID,0.0,VALID,90.141,VALID,135.365,VALID,22.195,VALID,96.0,VALID,0.0,
2019-03-27, 10:28:07,VALID,920.518,VALID,0.0,VALID,90.547,VALID,138.997,VALID,22.213,VALID,104.0,VALID,0.0,
2019-03-27, 10:29:07,VALID,920.516,VALID,0.0,VALID,90.728,VALID,139.137,VALID,22.232,VALID,115.0,VALID,0.0,
2019-03-27, 10:30:07,VALID,920.485,VALID,0.0,VALID,90.997,VALID,131.478,VALID,22.249,VALID,133.0,VALID,0.0,
2019-03-27, 10:31:07,VALID,920.521,VALID,0.0,VALID,90.383,VALID,130.207,VALID,22.275,VALID,115.0,VALID,0.0,
2019-03-27, 10:32:07,VALID,920.504,VALID,0.0,VALID,89.133,VALID,129.007,VALID,22.248,VALID,84.0,VALID,0.0,
2019-03-27, 10:33:07,VALID,920.47,VALID,0.0,VALID,89.496,VALID,133.601,VALID,22.255,VALID,64.0,VALID,0.0,
2019-03-27, 10:34:07,VALID,920.45,VALID,0.0,VALID,90.298,VALID,137.557,VALID,22.318,VALID,59.0,VALID,0.0,
2019-03-27, 10:35:07,VALID,920.448,VALID,0.0,VALID,90.774,VALID,139.139,VALID,22.398,VALID,113.0,VALID,0.0,
2019-03-27, 10:36:07,VALID,920.435,VALID,0.0,VALID,90.559,VALID,137.043,VALID,22.436,VALID,96.0,VALID,0.0,
2019-03-27, 10:37:07,VALID,920.429,VALID,0.0,VALID,88.161,VALID,136.067,VALID,22.479,VALID,119.0,VALID,0.0,
2019-03-27, 10:38:07,VALID,920.45,VALID,0.0,VALID,87.9,VALID,134.041,VALID,22.569,VALID,150.0,VALID,0.0,
2019-03-27, 10:39:07,VALID,920.449,VALID,0.0,VALID,88.207,VALID,137.697,VALID,22.576,VALID,122.0,VALID,0.0,
2019-03-27, 10:40:07,VALID,920.443,VALID,0.0,VALID,87.968,VALID,136.611,VALID,22.576,VALID,112.0,VALID,0.0,